User: anonymous   Login
Location: Caltech
(34.1382°N, 118.1253°W)
Time: 13:10:07
(UTC-07:00)
Language:

ERBS - Orbit

View from above orbital plane
View from above orbital plane
View from above satellite
View from above satellite

Ground track
Ground track

The orbit data is extracted from the following two-line orbital elements,

1 15354U 84108B   16238.17604670  .00002500  00000-0  68194-4 0  9999
2 15354  57.0100 330.7963 0006108 258.1902 101.8467 15.41377446752526
Epoch (UTC): 25 August 2016 04:13:30
Eccentricity: 0.0006108
inclination: 57.0100°
perigee height: 438 km
apogee height: 446 km
right ascension of ascending node: 330.7963°
argument of perigee: 258.1902°
revolutions per day: 15.41377446
mean anomaly at epoch: 101.8467°
orbit number at epoch: 75252

The dashed part of the orbit path shows where the satellite is in the earth's shadow,  

DLR